Terminal Aerodrome Forecast
Issued by NWS

Home | Current Version | Previous Version | Text Only | Print | Product List | Glossary On
Versions: 1 2 3 4 5 6 7 8 9 10 11 12 13 14 15 16
766
FTUS41 KPBZ 251129
TAFHLG
TAF
KHLG 251129Z 2512/2612 08005KT P6SM OVC080
     FM251600 32007KT P6SM VCSH OVC020
     FM252000 32011KT P6SM VCSH OVC008
     FM252300 32011KT P6SM BKN015=

USA.gov is the U.S. government's official web portal to all federal, state and local government web resources and services.